Tracking 31027 objects as of 19-Jul-2025
HD Live streaming from Space Station
objects crossing your sky now

COSMOS 1030 DEB

Track COSMOS 1030 DEB now!


NORAD ID: 39447
Int'l Code: 1978-083T
Perigee: 1,891.2 km
Apogee: 38,527.6 km
Inclination: 63.8 °
Period: 718.8 minutes
Semi major axis: 26580 km
RCS: Unknown
Launch date: September 6, 1978
Source: Commonwealth of Independent States (former USSR) (CIS)
Launch site: PLESETSK MISSILE AND SPACE COMPLEX (PKMTR)

Note: This is SATELLITE DEBRIS
Your satellite tracking list
STARLINK-5129
Track 1 satellite(s)




NASA's NSSDC Master Catalog

Two Line Element Set (TLE):
1 39447U 78083T   25196.23977517  .00000946  00000-0  00000-0 0  9996
2 39447  63.8159 227.1715 6891629   3.8673 359.6132  2.00336682 75993
Source of the keplerian elements: AFSPC